Dimanche 17 octobre 2021   -   semaine 41                    on fête: Baudoin                    soleil  (-2 mn) lever du soleil 08:05:00 coucher du soleil 18:58:00                    lune Lune gibbeuse croissante
Sélection

Sélection d'un SYNOP

   Synop:       

  Période à consulter:

Actuelle
Archive     

Relevé

Dernier relevé du SYNOP pour la période choisie

Conditions météo à la station de Vichy/Charmeil (4610N 00324E)    altitude 251m

Date du relevé17/10/2021 à 10:00
Base des nuagesplus de 2500m
Visibilité18km
Vent2 km/h S
Température6.3 C
Température mini / 12h69.4 C
Humidité99.3 %
Point de rosée6.2 C
Pression absolue990.7 hPa
Pression relative1021.3 hPa
Variation pression1.2 hPa en hausse régulière ou irrégulière

24h

Historique de la période choisie

Certaines stations ne diffusent pas en continu, d'où l'absence possible de données à certaines heures. Le tableau ci-dessous récapitule l'historique des relevés de la station de Vichy/Charmeil.

Date - Heure Base des nuages Visibilité Nébulosité Vent - Secteur Température Humidité Point rosée Pression / Géopotentiel Précipitations Temps
17/10 10:00 plus de 2500m 18km 2 km/h S 6.3 C 99.3 % 6.2 C 1021.3 hPa
17/10 09:00 plus de 2500m 19km 2 km/h SSE 2.8 C 99.3 % 2.7 C 1021.5 hPa
17/10 08:00 0 à 50m 4900m 8/8 0 km/h N 1.0 C 97.9 % 0.7 C 1021.1 hPa 0 mm/12h
17/10 07:00 plus de 2500m 5000m 2 km/h S 2.1 C 99.3 % 2.0 C 1020.6 hPa
17/10 06:00 0 à 50m 400m 3/8 2 km/h SSO 1.8 C 97.9 % 1.5 C 1020.4 hPa
17/10 05:00 plus de 2500m 4200m 2 km/h O 2.0 C 97.9 % 1.7 C 1020.7 hPa
17/10 04:00 plus de 2500m 4100m 4 km/h SSO 2.7 C 97.9 % 2.4 C 1020.8 hPa
17/10 03:00 plus de 2500m 3900m 0 km/h N 2.7 C 97.9 % 2.4 C 1021.2 hPa
17/10 02:00 0 à 50m 5000m 8/8 0 km/h N 4.1 C 95.9 % 3.5 C 1021.1 hPa 0 mm/6h
17/10 01:00 plus de 2500m 4100m 2 km/h SSO 4.4 C 97.2 % 4.0 C 1020.9 hPa
17/10 00:00 plus de 2500m 6km 2 km/h OSO 4.9 C 97.2 % 4.5 C 1021.4 hPa
16/10 23:00 plus de 2500m 10km 2 km/h SO 5.1 C 95.9 % 4.5 C 1021.1 hPa
16/10 22:00 plus de 2500m 10km 2 km/h O 6.8 C 92.1 % 5.6 C 1020.8 hPa
16/10 21:00 plus de 2500m 20km 4 km/h N 10.8 C 81.7 % 7.8 C 1020.2 hPa
16/10 20:00 plus de 2500m 17km 2 km/h N 10.7 C 77.9 % 7.0 C 1020.2 hPa 0 mm/12h
16/10 19:00 plus de 2500m 20km 4 km/h N 12.9 C 72.1 % 8.0 C 1019.7 hPa
16/10 18:00 plus de 2500m 20km 6 km/h NNE 15.6 C 60.2 % 7.9 C 1019.1 hPa
16/10 17:00 plus de 2500m 20km 7 km/h NNE 16.3 C 54.9 % 7.2 C 1019.0 hPa
16/10 16:00 plus de 2500m 20km 6 km/h NNE 16.8 C 53.1 % 7.2 C 1019.0 hPa
16/10 15:00 plus de 2500m 20km 6 km/h NNE 15.8 C 57.8 % 7.5 C 1019.5 hPa
16/10 14:00 600 à 1000m 19km 1/8 6 km/h ENE 15.1 C 62.1 % 7.9 C 1020.2 hPa 0 mm/6h
16/10 13:00 plus de 2500m 19km 2 km/h NNO 14.0 C 61.0 % 6.6 C 1021.1 hPa
16/10 12:00 plus de 2500m 20km 2 km/h SE 12.1 C 67.2 % 6.2 C 1021.4 hPa
16/10 11:00 plus de 2500m 20km 4 km/h SSE 9.4 C 78.2 % 5.8 C 1022.0 hPa

Source: ogimet